Location: Unspecified
(37.6100°N, 2.7800°W)
Time: 03:29:12
(UTC+00:00)

Envisat - Visible Passes

Search period start: 22 August 2018 00:00
Search period end: 01 September 2018 00:00
Orbit: 764 x 766 km, 98.2° (Epoch: 21 August)

Date Brightness Start Highest point End Pass type
(mag) Time Alt. Az. Time Alt. Az. Time Alt. Az.
22 Aug 3.8 19:42:34 10° S 19:47:30 53° W 19:52:29 10° NNW visible
23 Aug 5.8 20:48:10 10° WSW 20:50:14 12° W 20:52:19 10° WNW visible
24 Aug 4.9 20:08:49 10° SSW 20:13:11 29° W 20:17:36 10° NW visible
25 Aug 3.4 19:31:17 10° S 19:36:20 69° W 19:41:24 10° NNW visible
26 Aug 5.7 20:35:51 10° SW 20:38:57 16° W 20:42:04 10° NW visible
27 Aug 4.5 19:57:17 10° SSW 20:01:57 37° W 20:06:40 10° NNW visible
28 Aug 3.1 19:20:05 10° SSE 19:25:09 87° WSW 19:30:16 10° NNW visible
29 Aug 5.4 20:23:55 10° SW 20:27:41 21° W 20:31:28 10° NW visible
30 Aug 4.0 19:45:52 10° S 19:50:44 48° W 19:55:40 10° NNW visible
31 Aug 3.0 19:08:57 10° SSE 19:14:00 74° ENE 19:19:05 10° N visible
31 Aug 6.0 20:52:07 10° WSW 20:53:30 11° W 20:54:54 10° WNW visible
